TimeEDT,TemperatureF,Dew PointF,Humidity,Sea Level PressureIn,VisibilityMPH,Wind Direction,Wind SpeedMPH,Gust SpeedMPH,PrecipitationIn,Events,Conditions,WindDirDegrees,DateUTC
12:51 AM,57.0,55.0,93,30.12,7.0,Calm,Calm,-,N/A,,Clear,0,2013-10-03 04:51:00
1:51 AM,55.9,54.0,93,30.12,6.0,Calm,Calm,-,N/A,,Clear,0,2013-10-03 05:51:00
2:51 AM,55.9,54.0,93,30.11,5.0,Calm,Calm,-,N/A,,Clear,0,2013-10-03 06:51:00
3:51 AM,57.0,54.0,89,30.11,7.0,Calm,Calm,-,N/A,,Clear,0,2013-10-03 07:51:00
4:51 AM,55.9,54.0,93,30.10,6.0,East,3.5,-,N/A,,Clear,100,2013-10-03 08:51:00
5:51 AM,57.0,54.0,89,30.11,5.0,Calm,Calm,-,N/A,,Clear,0,2013-10-03 09:51:00
6:51 AM,54.0,52.0,93,30.14,4.0,Calm,Calm,-,N/A,,Clear,0,2013-10-03 10:51:00
7:51 AM,57.0,54.0,89,30.15,6.0,ESE,3.5,-,N/A,,Clear,120,2013-10-03 11:51:00
8:51 AM,62.1,57.0,84,30.16,10.0,SSE,6.9,-,N/A,,Clear,150,2013-10-03 12:51:00
9:51 AM,64.9,59.0,81,30.15,10.0,Calm,Calm,-,N/A,,Clear,0,2013-10-03 13:51:00
10:51 AM,70.0,59.0,68,30.14,10.0,South,3.5,-,N/A,,Clear,170,2013-10-03 14:51:00
11:51 AM,73.0,57.0,57,30.12,10.0,NE,4.6,-,N/A,,Clear,50,2013-10-03 15:51:00
12:51 PM,73.0,57.9,59,30.12,10.0,North,3.5,-,N/A,,Clear,350,2013-10-03 16:51:00
1:51 PM,73.9,55.0,52,30.10,10.0,Calm,Calm,-,N/A,,Scattered Clouds,0,2013-10-03 17:51:00
2:51 PM,75.9,55.9,50,30.08,10.0,ENE,4.6,-,N/A,,Clear,70,2013-10-03 18:51:00
3:51 PM,75.9,55.9,50,30.07,10.0,ESE,3.5,-,N/A,,Clear,120,2013-10-03 19:51:00
4:51 PM,75.0,57.0,53,30.07,10.0,Calm,Calm,-,N/A,,Scattered Clouds,0,2013-10-03 20:51:00
5:51 PM,73.0,59.0,61,30.08,10.0,SE,3.5,-,N/A,,Unknown,130,2013-10-03 21:51:00
6:51 PM,71.1,59.0,66,30.09,10.0,SSE,3.5,-,N/A,,Clear,160,2013-10-03 22:51:00
7:51 PM,66.9,59.0,76,30.10,10.0,SSE,4.6,-,N/A,,Partly Cloudy,160,2013-10-03 23:51:00
8:51 PM,66.0,57.9,75,30.10,10.0,SSE,3.5,-,N/A,,Clear,150,2013-10-04 00:51:00
9:51 PM,62.1,57.0,84,30.10,10.0,Calm,Calm,-,N/A,,Clear,0,2013-10-04 01:51:00
10:51 PM,61.0,57.0,87,30.10,10.0,SSE,5.8,-,N/A,,Clear,160,2013-10-04 02:51:00
11:51 PM,62.1,57.0,84,30.10,10.0,Calm,Calm,-,N/A,,Clear,0,2013-10-04 03:51:00